This is the latest recevied weather packets stored in our database for station/object N5TDX. If no packets are shown the sender has not sent any weather packets the latest 10 day(s).
| Time | Temp. | Humidity | Pressure | Rain* | Wind** | Luminosity | Snow |
|---|---|---|---|---|---|---|---|
| 1777921396 | 28.33° C | 49% | 1007 hPa | 0 mm | - | - | - |
| 1777921093 | 28.33° C | 48% | 1006.8 hPa | 0 mm | - | - | - |
| 1777920790 | 27.78° C | 49% | 1007.3 hPa | 0 mm | - | - | - |
| 1777920486 | 27.78° C | 49% | 1007.2 hPa | 0 mm | - | - | - |
| 1777920182 | 27.78° C | 49% | 1007.4 hPa | 0 mm | - | - | - |
| 1777919877 | 28.33° C | 49% | 1007.2 hPa | 0 mm | - | - | - |
| 1777919574 | 27.78° C | 51% | 1007.2 hPa | 0 mm | - | - | - |
| 1777919273 | 27.78° C | 51% | 1007.1 hPa | 0 mm | - | - | - |
| 1777918969 | 27.22° C | 51% | 1007.6 hPa | 0 mm | - | - | - |
| 1777918667 | 27.78° C | 51% | 1007.3 hPa | 0 mm | - | - | - |
| 1777918364 | 27.22° C | 50% | 1007.8 hPa | 0 mm | - | - | - |
| 1777918063 | 27.22° C | 51% | 1007.8 hPa | 0 mm | - | - | - |
| 1777917762 | 27.22° C | 51% | 1007.8 hPa | 0 mm | - | - | - |
| 1777917459 | 26.67° C | 52% | 1007.9 hPa | 0 mm | - | - | - |
| 1777917155 | 26.11° C | 52% | 1007.9 hPa | 0 mm | - | - | - |
| 1777916853 | 26.67° C | 51% | 1008 hPa | 0 mm | - | - | - |
| 1777916551 | 27.22° C | 50% | 1008.1 hPa | 0 mm | - | - | - |
| 1777916247 | 27.22° C | 50% | 1008.2 hPa | 0 mm | - | - | - |
| 1777915944 | 26.67° C | 51% | 1008.2 hPa | 0 mm | - | - | - |
| 1777915641 | 26.67° C | 51% | 1008.1 hPa | 0 mm | - | - | - |
| 1777915337 | 26.67° C | 52% | 1008.3 hPa | 0 mm | - | - | - |
| 1777915034 | 26.67° C | 51% | 1008.3 hPa | 0 mm | - | - | - |
| 1777914731 | 26.11° C | 53% | 1008.2 hPa | 0 mm | - | - | - |
| 1777914428 | 26.11° C | 52% | 1008.4 hPa | 0 mm | - | - | - |
| 1777914125 | 25.56° C | 53% | 1008.3 hPa | 0 mm | - | - | - |
* Rain latest hour (hover to see other rain measurements)
** Current wind speed in m/s (hover to see current wind gust speed)